STARLINK-1549 (46074 NORAD) Tracking and Keplerian Element Data

This shows tracking and keplerian element data for the satellite.

Feedback or suggestion? Click here.




ElementValue
Catalog46074
NameSTARLINK-1549
Epoch Orbit1959
Epoch Day338.56155924
Epoch Year2020
RAAN85.2974
Inclination53.0184
Eccentricity0.0001393
Argument of Perigee73.378
Mean Anonmoly286.7361
Mean Motion15.05578346
Decay Rate-1.085E-05
L11 46074U 20055AZ 20338.56155924 -.00001085 00000-0 -55327-4 0 9998
L22 46074 53.0184 85.2974 0001393 73.3780 286.7361 15.05578346 19594

Live tracking and technical data element details for STARLINK-1549 (NORAD 46074). STARLINK-1549 can be tracked NOW for your location showing map with azimuth and elevation plus other details from your city location.

Track the satellite on the map from your city or location and see movement details for azimuth, elevation, latitude, longitude, range, height, and movement on the map or in text.







IsCatalogInMostPopularTable: catalog: 46074, numindb: 27
Update: records affected: 1



GetName: 46074 STARLINK-1549

Hit Count: updated at: Sun, 06 Dec 2020 01:15:09 GMT